Time,TemperatureF,DewpointF,PressureIn,WindDirection,WindDirectionDegrees,WindSpeedMPH,WindSpeedGustMPH,Humidity,HourlyPrecipIn,Conditions,Clouds,dailyrainin,SoftwareType,DateUTC
2013-04-03 00:00:00,27.0,21.0,29.95,SW,225,8.0,17.0,73,0.00,,,0.00,Rainwise IP-100,2013-04-03 04:00:00,
2013-04-03 00:04:00,28.0,21.0,29.95,NW,315,7.0,17.0,73,0.00,,,0.00,Rainwise IP-100,2013-04-03 04:04:00,
2013-04-03 00:09:00,28.0,21.0,29.94,WNW,292,5.0,10.0,73,0.00,,,0.00,Rainwise IP-100,2013-04-03 04:09:00,
2013-04-03 00:14:00,28.0,21.0,29.95,WNW,292,4.0,10.0,73,0.00,,,0.00,Rainwise IP-100,2013-04-03 04:14:00,
2013-04-03 00:19:00,28.0,21.0,29.94,WSW,247,1.0,10.0,73,0.00,,,0.00,Rainwise IP-100,2013-04-03 04:19:00,
2013-04-03 00:21:00,27.0,21.0,29.94,NW,315,1.0,8.0,73,0.00,,,0.00,Rainwise IP-100,2013-04-03 04:21:00,
2013-04-03 00:26:00,27.0,21.0,29.94,WNW,292,0.0,9.0,73,0.00,,,0.00,Rainwise IP-100,2013-04-03 04:26:00,
2013-04-03 00:31:00,27.0,21.0,29.94,NW,315,3.0,9.0,73,0.00,,,0.00,Rainwise IP-100,2013-04-03 04:31:00,
2013-04-03 00:36:00,27.0,21.0,29.94,WNW,292,0.0,6.0,73,0.00,,,0.00,Rainwise IP-100,2013-04-03 04:36:00,
2013-04-03 00:37:00,27.0,21.0,29.94,NW,315,0.0,6.0,73,0.00,,,0.00,Rainwise IP-100,2013-04-03 04:37:00,
2013-04-03 00:42:00,27.0,21.0,29.95,WNW,292,8.0,12.0,73,0.00,,,0.00,Rainwise IP-100,2013-04-03 04:42:00,
2013-04-03 00:47:00,27.0,21.0,29.95,WNW,292,1.0,17.0,73,0.00,,,0.00,Rainwise IP-100,2013-04-03 04:47:00,
2013-04-03 00:52:00,27.0,21.0,29.96,WSW,247,0.0,15.0,73,0.00,,,0.00,Rainwise IP-100,2013-04-03 04:52:00,
2013-04-03 00:57:00,27.0,21.0,29.96,NW,315,7.0,15.0,73,0.00,,,0.00,Rainwise IP-100,2013-04-03 04:57:00,
2013-04-03 01:02:00,27.0,21.0,29.96,NW,315,2.0,17.0,73,0.00,,,0.00,Rainwise IP-100,2013-04-03 05:02:00,
2013-04-03 01:07:00,26.0,18.0,29.95,WNW,292,3.0,10.0,74,0.00,,,0.00,Rainwise IP-100,2013-04-03 05:07:00,
2013-04-03 01:12:00,26.0,18.0,29.96,NNW,337,0.0,9.0,74,0.00,,,0.00,Rainwise IP-100,2013-04-03 05:12:00,
2013-04-03 01:17:00,26.0,18.0,29.97,SW,225,2.0,7.0,74,0.00,,,0.00,Rainwise IP-100,2013-04-03 05:17:00,
2013-04-03 01:25:00,26.0,18.0,29.97,WSW,247,0.0,10.0,74,0.00,,,0.00,Rainwise IP-100,2013-04-03 05:25:00,
2013-04-03 01:30:00,26.0,18.0,29.96,SW,225,0.0,8.0,74,0.00,,,0.00,Rainwise IP-100,2013-04-03 05:30:00,
2013-04-03 01:35:00,26.0,18.0,29.96,WNW,292,1.0,9.0,74,0.00,,,0.00,Rainwise IP-100,2013-04-03 05:35:00,
2013-04-03 01:40:00,26.0,18.0,29.96,South,180,0.0,16.0,74,0.00,,,0.00,Rainwise IP-100,2013-04-03 05:40:00,
2013-04-03 01:45:00,25.0,18.0,29.96,SW,225,0.0,9.0,74,0.00,,,0.00,Rainwise IP-100,2013-04-03 05:45:00,
2013-04-03 01:50:00,25.0,18.0,29.96,NW,315,1.0,7.0,74,0.00,,,0.00,Rainwise IP-100,2013-04-03 05:50:00,
2013-04-03 01:55:00,25.0,18.0,29.96,WSW,247,3.0,6.0,74,0.00,,,0.00,Rainwise IP-100,2013-04-03 05:55:00,
2013-04-03 02:00:00,25.0,18.0,29.95,NW,315,0.0,15.0,74,0.00,,,0.00,Rainwise IP-100,2013-04-03 06:00:00,
2013-04-03 02:05:00,25.0,18.0,29.96,WNW,292,1.0,7.0,74,0.00,,,0.00,Rainwise IP-100,2013-04-03 06:05:00,
2013-04-03 02:10:00,25.0,18.0,29.96,WNW,292,0.0,10.0,74,0.00,,,0.00,Rainwise IP-100,2013-04-03 06:10:00,
2013-04-03 02:15:00,25.0,18.0,29.96,North,360,0.0,10.0,74,0.00,,,0.00,Rainwise IP-100,2013-04-03 06:15:00,
2013-04-03 02:20:00,25.0,18.0,29.96,NW,315,4.0,9.0,74,0.00,,,0.00,Rainwise IP-100,2013-04-03 06:20:00,
2013-04-03 02:25:00,25.0,18.0,29.95,SSW,202,6.0,9.0,74,0.00,,,0.00,Rainwise IP-100,2013-04-03 06:25:00,
2013-04-03 02:30:00,26.0,18.0,29.95,NW,315,0.0,10.0,74,0.00,,,0.00,Rainwise IP-100,2013-04-03 06:30:00,
2013-04-03 02:35:00,26.0,18.0,29.95,WSW,247,6.0,10.0,74,0.00,,,0.00,Rainwise IP-100,2013-04-03 06:35:00,
2013-04-03 02:40:00,26.0,18.0,29.95,WSW,247,1.0,9.0,74,0.00,,,0.00,Rainwise IP-100,2013-04-03 06:40:00,
2013-04-03 02:45:00,26.0,18.0,29.95,SSW,202,0.0,10.0,74,0.00,,,0.00,Rainwise IP-100,2013-04-03 06:45:00,
2013-04-03 02:50:00,26.0,18.0,29.95,WSW,247,0.0,8.0,74,0.00,,,0.00,Rainwise IP-100,2013-04-03 06:50:00,
2013-04-03 02:55:00,26.0,18.0,29.95,WSW,247,3.0,16.0,74,0.00,,,0.00,Rainwise IP-100,2013-04-03 06:55:00,
2013-04-03 03:00:00,26.0,18.0,29.95,West,270,5.0,12.0,74,0.00,,,0.00,Rainwise IP-100,2013-04-03 07:00:00,
2013-04-03 03:05:00,26.0,18.0,29.95,WNW,292,1.0,10.0,74,0.00,,,0.00,Rainwise IP-100,2013-04-03 07:05:00,
2013-04-03 03:10:00,26.0,18.0,29.95,WSW,247,0.0,11.0,74,0.00,,,0.00,Rainwise IP-100,2013-04-03 07:10:00,
2013-04-03 03:15:00,26.0,18.0,29.95,WNW,292,2.0,8.0,74,0.00,,,0.00,Rainwise IP-100,2013-04-03 07:15:00,
2013-04-03 03:20:00,26.0,18.0,29.94,NW,315,0.0,10.0,74,0.00,,,0.00,Rainwise IP-100,2013-04-03 07:20:00,
2013-04-03 03:25:00,26.0,18.0,29.94,West,270,7.0,8.0,74,0.00,,,0.00,Rainwise IP-100,2013-04-03 07:25:00,
2013-04-03 03:30:00,26.0,18.0,29.94,WNW,292,3.0,11.0,74,0.00,,,0.00,Rainwise IP-100,2013-04-03 07:30:00,
2013-04-03 03:35:00,27.0,21.0,29.94,West,270,3.0,10.0,73,0.00,,,0.00,Rainwise IP-100,2013-04-03 07:35:00,
2013-04-03 03:40:00,27.0,21.0,29.94,WNW,292,6.0,16.0,73,0.00,,,0.00,Rainwise IP-100,2013-04-03 07:40:00,
2013-04-03 03:45:00,27.0,21.0,29.94,West,270,6.0,13.0,73,0.00,,,0.00,Rainwise IP-100,2013-04-03 07:45:00,
2013-04-03 03:50:00,27.0,21.0,29.94,WNW,292,7.0,15.0,73,0.00,,,0.00,Rainwise IP-100,2013-04-03 07:50:00,
2013-04-03 03:55:00,26.0,18.0,29.95,South,180,1.0,12.0,74,0.00,,,0.00,Rainwise IP-100,2013-04-03 07:55:00,
2013-04-03 04:00:00,26.0,18.0,29.96,SW,225,0.0,10.0,74,0.00,,,0.00,Rainwise IP-100,2013-04-03 08:00:00,
2013-04-03 04:05:00,26.0,18.0,29.96,SSE,157,0.0,10.0,74,0.00,,,0.00,Rainwise IP-100,2013-04-03 08:05:00,
2013-04-03 04:10:00,26.0,18.0,29.96,WSW,247,0.0,8.0,74,0.00,,,0.00,Rainwise IP-100,2013-04-03 08:10:00,
2013-04-03 04:15:00,26.0,18.0,29.96,WSW,247,3.0,9.0,74,0.00,,,0.00,Rainwise IP-100,2013-04-03 08:15:00,
2013-04-03 04:20:00,26.0,18.0,29.96,WSW,247,2.0,9.0,74,0.00,,,0.00,Rainwise IP-100,2013-04-03 08:20:00,
2013-04-03 04:25:00,26.0,18.0,29.96,WNW,292,2.0,8.0,74,0.00,,,0.00,Rainwise IP-100,2013-04-03 08:25:00,
2013-04-03 04:30:00,26.0,18.0,29.96,NNW,337,0.0,13.0,74,0.00,,,0.00,Rainwise IP-100,2013-04-03 08:30:00,
2013-04-03 04:35:00,26.0,18.0,29.96,West,270,3.0,10.0,74,0.00,,,0.00,Rainwise IP-100,2013-04-03 08:35:00,
2013-04-03 04:40:00,26.0,18.0,29.96,WNW,292,5.0,10.0,74,0.00,,,0.00,Rainwise IP-100,2013-04-03 08:40:00,
2013-04-03 04:45:00,26.0,18.0,29.96,WSW,247,0.0,9.0,74,0.00,,,0.00,Rainwise IP-100,2013-04-03 08:45:00,
2013-04-03 04:50:00,26.0,18.0,29.96,WSW,247,5.0,12.0,74,0.00,,,0.00,Rainwise IP-100,2013-04-03 08:50:00,
2013-04-03 04:55:00,26.0,18.0,29.96,WNW,292,6.0,12.0,74,0.00,,,0.00,Rainwise IP-100,2013-04-03 08:55:00,
2013-04-03 05:00:00,26.0,18.0,29.95,West,270,7.0,16.0,74,0.00,,,0.00,Rainwise IP-100,2013-04-03 09:00:00,
2013-04-03 05:05:00,26.0,18.0,29.96,WNW,292,1.0,17.0,74,0.00,,,0.00,Rainwise IP-100,2013-04-03 09:05:00,
2013-04-03 05:11:00,26.0,18.0,29.96,WNW,292,0.0,10.0,74,0.00,,,0.00,Rainwise IP-100,2013-04-03 09:11:00,
2013-04-03 05:16:00,26.0,18.0,29.96,WSW,247,1.0,10.0,74,0.00,,,0.00,Rainwise IP-100,2013-04-03 09:16:00,
2013-04-03 05:21:00,26.0,18.0,29.96,WSW,247,0.0,9.0,74,0.00,,,0.00,Rainwise IP-100,2013-04-03 09:21:00,
2013-04-03 05:26:00,26.0,18.0,29.96,WSW,247,14.0,14.0,74,0.00,,,0.00,Rainwise IP-100,2013-04-03 09:26:00,
2013-04-03 05:31:00,26.0,18.0,29.96,West,270,2.0,14.0,74,0.00,,,0.00,Rainwise IP-100,2013-04-03 09:31:00,
2013-04-03 05:36:00,26.0,18.0,29.97,WNW,292,1.0,13.0,74,0.00,,,0.00,Rainwise IP-100,2013-04-03 09:36:00,
2013-04-03 05:41:00,26.0,18.0,29.96,West,270,0.0,10.0,74,0.00,,,0.00,Rainwise IP-100,2013-04-03 09:41:00,
2013-04-03 05:46:00,26.0,18.0,29.97,WNW,292,5.0,8.0,74,0.00,,,0.00,Rainwise IP-100,2013-04-03 09:46:00,
2013-04-03 05:51:00,26.0,18.0,29.97,WNW,292,7.0,10.0,74,0.00,,,0.00,Rainwise IP-100,2013-04-03 09:51:00,
2013-04-03 05:56:00,26.0,18.0,29.97,West,270,6.0,12.0,74,0.00,,,0.00,Rainwise IP-100,2013-04-03 09:56:00,
2013-04-03 06:01:00,26.0,18.0,29.97,WSW,247,4.0,12.0,74,0.00,,,0.00,Rainwise IP-100,2013-04-03 10:01:00,
2013-04-03 06:06:00,26.0,18.0,29.97,WNW,292,0.0,10.0,74,0.00,,,0.00,Rainwise IP-100,2013-04-03 10:06:00,
2013-04-03 06:14:00,26.0,18.0,29.97,WSW,247,0.0,10.0,74,0.00,,,0.00,Rainwise IP-100,2013-04-03 10:14:00,
2013-04-03 06:19:00,26.0,18.0,29.97,South,180,0.0,6.0,74,0.00,,,0.00,Rainwise IP-100,2013-04-03 10:19:00,
2013-04-03 06:24:00,26.0,18.0,29.98,WSW,247,0.0,10.0,74,0.00,,,0.00,Rainwise IP-100,2013-04-03 10:24:00,
2013-04-03 06:29:00,26.0,18.0,29.98,WNW,292,9.0,12.0,74,0.00,,,0.00,Rainwise IP-100,2013-04-03 10:29:00,
2013-04-03 06:34:00,26.0,18.0,29.98,NNW,337,5.0,12.0,74,0.00,,,0.00,Rainwise IP-100,2013-04-03 10:34:00,
2013-04-03 06:39:00,26.0,18.0,29.98,SW,225,0.0,10.0,74,0.00,,,0.00,Rainwise IP-100,2013-04-03 10:39:00,
2013-04-03 06:44:00,26.0,18.0,29.98,SSE,157,4.0,14.0,74,0.00,,,0.00,Rainwise IP-100,2013-04-03 10:44:00,
2013-04-03 06:49:00,26.0,18.0,29.98,WSW,247,3.0,9.0,74,0.00,,,0.00,Rainwise IP-100,2013-04-03 10:49:00,
2013-04-03 06:54:00,26.0,18.0,29.98,WNW,292,0.0,12.0,74,0.00,,,0.00,Rainwise IP-100,2013-04-03 10:54:00,
2013-04-03 06:59:00,27.0,21.0,29.98,SW,225,0.0,10.0,73,0.00,,,0.00,Rainwise IP-100,2013-04-03 10:59:00,
2013-04-03 07:04:00,27.0,21.0,29.98,WSW,247,6.0,13.0,73,0.00,,,0.00,Rainwise IP-100,2013-04-03 11:04:00,
2013-04-03 07:09:00,27.0,21.0,29.98,WSW,247,22.0,25.0,73,0.00,,,0.00,Rainwise IP-100,2013-04-03 11:09:00,
2013-04-03 07:14:00,27.0,21.0,29.98,SSE,157,0.0,22.0,73,0.00,,,0.00,Rainwise IP-100,2013-04-03 11:14:00,
2013-04-03 07:19:00,27.0,21.0,29.98,WNW,292,6.0,10.0,73,0.00,,,0.00,Rainwise IP-100,2013-04-03 11:19:00,
2013-04-03 07:24:00,28.0,21.0,29.98,WNW,292,0.0,10.0,73,0.00,,,0.00,Rainwise IP-100,2013-04-03 11:24:00,
2013-04-03 07:29:00,28.0,21.0,29.98,NW,315,5.0,15.0,73,0.00,,,0.00,Rainwise IP-100,2013-04-03 11:29:00,
2013-04-03 07:34:00,28.0,21.0,29.99,WNW,292,0.0,12.0,73,0.00,,,0.00,Rainwise IP-100,2013-04-03 11:34:00,
2013-04-03 07:39:00,28.0,21.0,29.99,WSW,247,1.0,10.0,73,0.00,,,0.00,Rainwise IP-100,2013-04-03 11:39:00,
2013-04-03 07:44:00,27.0,21.0,29.99,WNW,292,2.0,13.0,73,0.00,,,0.00,Rainwise IP-100,2013-04-03 11:44:00,
2013-04-03 07:49:00,28.0,21.0,29.99,West,270,1.0,9.0,73,0.00,,,0.00,Rainwise IP-100,2013-04-03 11:49:00,
2013-04-03 07:54:00,28.0,21.0,29.99,WSW,247,6.0,12.0,73,0.00,,,0.00,Rainwise IP-100,2013-04-03 11:54:00,
2013-04-03 07:59:00,28.0,21.0,29.99,WNW,292,6.0,16.0,73,0.00,,,0.00,Rainwise IP-100,2013-04-03 11:59:00,
2013-04-03 08:04:00,29.0,23.0,29.99,SW,225,9.0,16.0,73,0.00,,,0.00,Rainwise IP-100,2013-04-03 12:04:00,
2013-04-03 08:09:00,29.0,23.0,29.99,WNW,292,1.0,16.0,73,0.00,,,0.00,Rainwise IP-100,2013-04-03 12:09:00,
2013-04-03 08:14:00,29.0,23.0,29.98,West,270,3.0,12.0,73,0.00,,,0.00,Rainwise IP-100,2013-04-03 12:14:00,
2013-04-03 08:19:00,29.0,23.0,29.98,NNW,337,0.0,15.0,73,0.00,,,0.00,Rainwise IP-100,2013-04-03 12:19:00,
2013-04-03 08:27:00,29.0,23.0,29.98,NW,315,0.0,16.0,73,0.00,,,0.00,Rainwise IP-100,2013-04-03 12:27:00,
2013-04-03 08:32:00,30.0,23.0,29.99,NNW,337,6.0,12.0,73,0.00,,,0.00,Rainwise IP-100,2013-04-03 12:32:00,
2013-04-03 08:37:00,31.0,23.0,29.99,NW,315,1.0,15.0,73,0.00,,,0.00,Rainwise IP-100,2013-04-03 12:37:00,
2013-04-03 08:42:00,31.0,23.0,29.99,WNW,292,0.0,11.0,73,0.00,,,0.00,Rainwise IP-100,2013-04-03 12:42:00,
2013-04-03 08:47:00,30.0,23.0,29.98,West,270,6.0,12.0,73,0.00,,,0.00,Rainwise IP-100,2013-04-03 12:47:00,
2013-04-03 08:52:00,31.0,23.0,29.98,NNW,337,4.0,10.0,73,0.00,,,0.00,Rainwise IP-100,2013-04-03 12:52:00,
2013-04-03 08:57:00,31.0,23.0,29.98,WNW,292,9.0,14.0,73,0.00,,,0.00,Rainwise IP-100,2013-04-03 12:57:00,
2013-04-03 09:03:00,31.0,23.0,29.98,NW,315,9.0,14.0,73,0.00,,,0.00,Rainwise IP-100,2013-04-03 13:03:00,
2013-04-03 09:08:00,31.0,23.0,29.99,WNW,292,8.0,15.0,73,0.00,,,0.00,Rainwise IP-100,2013-04-03 13:08:00,
2013-04-03 09:13:00,30.0,23.0,29.98,West,270,9.0,19.0,73,0.00,,,0.00,Rainwise IP-100,2013-04-03 13:13:00,
2013-04-03 09:18:00,30.0,23.0,29.99,SW,225,9.0,16.0,73,0.00,,,0.00,Rainwise IP-100,2013-04-03 13:18:00,
2013-04-03 09:23:00,30.0,23.0,29.98,West,270,6.0,19.0,73,0.00,,,0.00,Rainwise IP-100,2013-04-03 13:23:00,
2013-04-03 09:28:00,31.0,23.0,29.99,WNW,292,7.0,15.0,73,0.00,,,0.00,Rainwise IP-100,2013-04-03 13:28:00,
2013-04-03 09:33:00,31.0,23.0,29.98,WSW,247,6.0,12.0,73,0.00,,,0.00,Rainwise IP-100,2013-04-03 13:33:00,
2013-04-03 09:39:00,32.0,24.0,29.98,West,270,12.0,13.0,73,0.00,,,0.00,Rainwise IP-100,2013-04-03 13:39:00,
2013-04-03 09:44:00,33.0,26.0,29.98,WNW,292,3.0,17.0,72,0.00,,,0.00,Rainwise IP-100,2013-04-03 13:44:00,
2013-04-03 09:49:00,33.0,26.0,29.98,WNW,292,6.0,10.0,72,0.00,,,0.00,Rainwise IP-100,2013-04-03 13:49:00,
2013-04-03 09:54:00,32.0,24.0,29.98,NW,315,6.0,18.0,73,0.00,,,0.00,Rainwise IP-100,2013-04-03 13:54:00,
2013-04-03 09:59:00,32.0,24.0,29.98,WNW,292,3.0,15.0,73,0.00,,,0.00,Rainwise IP-100,2013-04-03 13:59:00,
2013-04-03 10:04:00,32.0,24.0,29.98,WNW,292,5.0,19.0,73,0.00,,,0.00,Rainwise IP-100,2013-04-03 14:04:00,
2013-04-03 10:09:00,32.0,24.0,29.98,WNW,292,17.0,17.0,73,0.00,,,0.00,Rainwise IP-100,2013-04-03 14:09:00,
2013-04-03 10:14:00,33.0,26.0,29.98,West,270,6.0,17.0,72,0.00,,,0.00,Rainwise IP-100,2013-04-03 14:14:00,
2013-04-03 10:19:00,33.0,26.0,29.98,NW,315,6.0,19.0,72,0.00,,,0.00,Rainwise IP-100,2013-04-03 14:19:00,
2013-04-03 10:24:00,33.0,26.0,29.98,NNW,337,6.0,11.0,72,0.00,,,0.00,Rainwise IP-100,2013-04-03 14:24:00,
2013-04-03 10:29:00,32.0,24.0,29.98,WNW,292,1.0,21.0,73,0.00,,,0.00,Rainwise IP-100,2013-04-03 14:29:00,
2013-04-03 10:34:00,32.0,24.0,29.98,WNW,292,4.0,17.0,73,0.00,,,0.00,Rainwise IP-100,2013-04-03 14:34:00,
2013-04-03 10:39:00,32.0,24.0,29.98,WSW,247,2.0,17.0,73,0.00,,,0.00,Rainwise IP-100,2013-04-03 14:39:00,
2013-04-03 10:44:00,32.0,24.0,29.98,SSW,202,0.0,13.0,73,0.00,,,0.00,Rainwise IP-100,2013-04-03 14:44:00,
2013-04-03 10:49:00,33.0,26.0,29.98,SW,225,0.0,13.0,72,0.00,,,0.00,Rainwise IP-100,2013-04-03 14:49:00,
2013-04-03 10:54:00,33.0,26.0,29.98,West,270,10.0,16.0,72,0.00,,,0.00,Rainwise IP-100,2013-04-03 14:54:00,
2013-04-03 10:59:00,34.0,26.0,29.98,SSW,202,2.0,16.0,72,0.00,,,0.00,Rainwise IP-100,2013-04-03 14:59:00,
2013-04-03 11:04:00,34.0,26.0,29.98,WSW,247,5.0,10.0,72,0.00,,,0.00,Rainwise IP-100,2013-04-03 15:04:00,
2013-04-03 11:09:00,34.0,26.0,29.98,West,270,5.0,22.0,72,0.00,,,0.00,Rainwise IP-100,2013-04-03 15:09:00,
2013-04-03 11:14:00,35.0,26.0,29.98,NW,315,2.0,16.0,72,0.00,,,0.00,Rainwise IP-100,2013-04-03 15:14:00,
2013-04-03 11:19:00,34.0,26.0,29.98,West,270,0.0,16.0,72,0.00,,,0.00,Rainwise IP-100,2013-04-03 15:19:00,
2013-04-03 11:24:00,34.0,26.0,29.98,West,270,3.0,16.0,72,0.00,,,0.00,Rainwise IP-100,2013-04-03 15:24:00,
2013-04-03 11:29:00,34.0,26.0,29.97,West,270,6.0,18.0,72,0.00,,,0.00,Rainwise IP-100,2013-04-03 15:29:00,
2013-04-03 11:34:00,34.0,26.0,29.97,West,270,5.0,18.0,72,0.00,,,0.00,Rainwise IP-100,2013-04-03 15:34:00,
2013-04-03 11:39:00,35.0,26.0,29.98,North,360,0.0,12.0,72,0.00,,,0.00,Rainwise IP-100,2013-04-03 15:39:00,
2013-04-03 11:44:00,35.0,26.0,29.98,NW,315,12.0,16.0,72,0.00,,,0.00,Rainwise IP-100,2013-04-03 15:44:00,
2013-04-03 11:49:00,34.0,26.0,29.97,WNW,292,4.0,16.0,72,0.00,,,0.00,Rainwise IP-100,2013-04-03 15:49:00,
2013-04-03 11:55:00,34.0,26.0,29.97,WNW,292,9.0,17.0,72,0.00,,,0.00,Rainwise IP-100,2013-04-03 15:55:00,
2013-04-03 12:00:00,34.0,26.0,29.97,WSW,247,2.0,14.0,72,0.00,,,0.00,Rainwise IP-100,2013-04-03 16:00:00,
2013-04-03 12:05:00,35.0,26.0,29.98,NW,315,1.0,12.0,72,0.00,,,0.00,Rainwise IP-100,2013-04-03 16:05:00,
2013-04-03 12:10:00,35.0,26.0,29.97,West,270,1.0,12.0,72,0.00,,,0.00,Rainwise IP-100,2013-04-03 16:10:00,
2013-04-03 12:15:00,35.0,26.0,29.97,WNW,292,2.0,12.0,72,0.00,,,0.00,Rainwise IP-100,2013-04-03 16:15:00,
2013-04-03 12:20:00,34.0,26.0,29.96,WNW,292,6.0,21.0,72,0.00,,,0.00,Rainwise IP-100,2013-04-03 16:20:00,
2013-04-03 12:25:00,34.0,26.0,29.97,WSW,247,3.0,15.0,72,0.00,,,0.00,Rainwise IP-100,2013-04-03 16:25:00,
2013-04-03 12:30:00,34.0,26.0,29.97,NW,315,5.0,13.0,72,0.00,,,0.00,Rainwise IP-100,2013-04-03 16:30:00,
2013-04-03 12:35:00,35.0,26.0,29.97,WNW,292,7.0,18.0,72,0.00,,,0.00,Rainwise IP-100,2013-04-03 16:35:00,
2013-04-03 12:40:00,34.0,26.0,29.97,West,270,5.0,22.0,72,0.00,,,0.00,Rainwise IP-100,2013-04-03 16:40:00,
2013-04-03 12:45:00,34.0,26.0,29.96,NNW,337,4.0,22.0,72,0.00,,,0.00,Rainwise IP-100,2013-04-03 16:45:00,
2013-04-03 12:50:00,35.0,26.0,29.96,WNW,292,16.0,19.0,72,0.00,,,0.00,Rainwise IP-100,2013-04-03 16:50:00,
2013-04-03 12:55:00,35.0,26.0,29.96,WNW,292,10.0,19.0,72,0.00,,,0.00,Rainwise IP-100,2013-04-03 16:55:00,
2013-04-03 13:00:00,34.0,26.0,29.96,WSW,247,5.0,15.0,72,0.00,,,0.00,Rainwise IP-100,2013-04-03 17:00:00,
2013-04-03 13:05:00,35.0,26.0,29.96,WNW,292,7.0,14.0,72,0.00,,,0.00,Rainwise IP-100,2013-04-03 17:05:00,
2013-04-03 13:10:00,36.0,28.0,29.96,WNW,292,2.0,20.0,72,0.00,,,0.00,Rainwise IP-100,2013-04-03 17:10:00,
2013-04-03 13:15:00,35.0,26.0,29.97,NW,315,15.0,19.0,72,0.00,,,0.00,Rainwise IP-100,2013-04-03 17:15:00,
2013-04-03 13:20:00,35.0,26.0,29.97,West,270,5.0,18.0,72,0.00,,,0.00,Rainwise IP-100,2013-04-03 17:20:00,
2013-04-03 13:25:00,36.0,28.0,29.96,NW,315,5.0,20.0,72,0.00,,,0.00,Rainwise IP-100,2013-04-03 17:25:00,
2013-04-03 13:30:00,36.0,28.0,29.96,NW,315,10.0,16.0,72,0.00,,,0.00,Rainwise IP-100,2013-04-03 17:30:00,
2013-04-03 13:35:00,36.0,28.0,29.96,NNW,337,9.0,20.0,72,0.00,,,0.00,Rainwise IP-100,2013-04-03 17:35:00,
2013-04-03 13:40:00,36.0,28.0,29.96,SW,225,2.0,20.0,72,0.00,,,0.00,Rainwise IP-100,2013-04-03 17:40:00,
2013-04-03 13:45:00,37.0,29.0,29.96,NW,315,11.0,15.0,72,0.00,,,0.00,Rainwise IP-100,2013-04-03 17:45:00,
2013-04-03 13:50:00,37.0,29.0,29.96,WSW,247,10.0,19.0,72,0.00,,,0.00,Rainwise IP-100,2013-04-03 17:50:00,
2013-04-03 13:55:00,37.0,29.0,29.96,NNW,337,15.0,17.0,72,0.00,,,0.00,Rainwise IP-100,2013-04-03 17:55:00,
2013-04-03 14:00:00,37.0,29.0,29.97,WNW,292,9.0,15.0,72,0.00,,,0.00,Rainwise IP-100,2013-04-03 18:00:00,
2013-04-03 14:05:00,38.0,29.0,29.97,SE,135,0.0,15.0,71,0.00,,,0.00,Rainwise IP-100,2013-04-03 18:05:00,
2013-04-03 14:10:00,38.0,29.0,29.97,WNW,292,7.0,15.0,71,0.00,,,0.00,Rainwise IP-100,2013-04-03 18:10:00,
2013-04-03 14:15:00,37.0,29.0,29.97,WNW,292,16.0,23.0,72,0.00,,,0.00,Rainwise IP-100,2013-04-03 18:15:00,
2013-04-03 14:20:00,37.0,29.0,29.97,NNW,337,11.0,23.0,72,0.00,,,0.00,Rainwise IP-100,2013-04-03 18:20:00,
2013-04-03 14:25:00,38.0,29.0,29.97,WNW,292,12.0,16.0,71,0.00,,,0.00,Rainwise IP-100,2013-04-03 18:25:00,
2013-04-03 14:30:00,38.0,29.0,29.96,West,270,3.0,24.0,71,0.00,,,0.00,Rainwise IP-100,2013-04-03 18:30:00,
2013-04-03 14:35:00,38.0,29.0,29.97,NW,315,7.0,31.0,71,0.00,,,0.00,Rainwise IP-100,2013-04-03 18:35:00,
2013-04-03 14:40:00,38.0,29.0,29.97,SSW,202,5.0,19.0,71,0.00,,,0.00,Rainwise IP-100,2013-04-03 18:40:00,
2013-04-03 14:45:00,38.0,29.0,29.97,WNW,292,8.0,15.0,71,0.00,,,0.00,Rainwise IP-100,2013-04-03 18:45:00,
2013-04-03 14:50:00,38.0,29.0,29.98,WNW,292,6.0,19.0,71,0.00,,,0.00,Rainwise IP-100,2013-04-03 18:50:00,
2013-04-03 14:55:00,38.0,29.0,29.97,West,270,6.0,21.0,71,0.00,,,0.00,Rainwise IP-100,2013-04-03 18:55:00,
2013-04-03 15:00:00,39.0,31.0,29.98,West,270,6.0,13.0,71,0.00,,,0.00,Rainwise IP-100,2013-04-03 19:00:00,
2013-04-03 15:05:00,39.0,31.0,29.98,WNW,292,8.0,14.0,71,0.00,,,0.00,Rainwise IP-100,2013-04-03 19:05:00,
2013-04-03 15:10:00,38.0,29.0,29.98,West,270,8.0,19.0,71,0.00,,,0.00,Rainwise IP-100,2013-04-03 19:10:00,
2013-04-03 15:15:00,38.0,29.0,29.98,WNW,292,12.0,17.0,71,0.00,,,0.00,Rainwise IP-100,2013-04-03 19:15:00,
2013-04-03 15:20:00,38.0,29.0,29.97,WNW,292,10.0,17.0,71,0.00,,,0.00,Rainwise IP-100,2013-04-03 19:20:00,
2013-04-03 15:25:00,37.0,29.0,29.98,NNW,337,16.0,21.0,72,0.00,,,0.00,Rainwise IP-100,2013-04-03 19:25:00,
2013-04-03 15:30:00,38.0,29.0,29.97,WNW,292,7.0,20.0,71,0.00,,,0.00,Rainwise IP-100,2013-04-03 19:30:00,
2013-04-03 15:35:00,38.0,29.0,29.98,WSW,247,3.0,26.0,71,0.00,,,0.00,Rainwise IP-100,2013-04-03 19:35:00,
2013-04-03 15:40:00,38.0,29.0,29.99,NW,315,8.0,16.0,71,0.00,,,0.00,Rainwise IP-100,2013-04-03 19:40:00,
2013-04-03 15:45:00,38.0,29.0,29.98,NNW,337,15.0,19.0,71,0.00,,,0.00,Rainwise IP-100,2013-04-03 19:45:00,
2013-04-03 15:50:00,38.0,29.0,29.98,WNW,292,9.0,28.0,71,0.00,,,0.00,Rainwise IP-100,2013-04-03 19:50:00,
2013-04-03 15:55:00,37.0,29.0,29.98,WNW,292,8.0,23.0,72,0.00,,,0.00,Rainwise IP-100,2013-04-03 19:55:00,
2013-04-03 16:00:00,38.0,29.0,29.98,NW,315,10.0,18.0,71,0.00,,,0.00,Rainwise IP-100,2013-04-03 20:00:00,
2013-04-03 16:05:00,37.0,29.0,29.99,West,270,10.0,19.0,72,0.00,,,0.00,Rainwise IP-100,2013-04-03 20:05:00,
2013-04-03 16:10:00,38.0,29.0,29.98,WNW,292,5.0,20.0,71,0.00,,,0.00,Rainwise IP-100,2013-04-03 20:10:00,
2013-04-03 16:16:00,38.0,29.0,29.99,NW,315,9.0,23.0,71,0.00,,,0.00,Rainwise IP-100,2013-04-03 20:16:00,
2013-04-03 16:21:00,38.0,29.0,29.99,WNW,292,13.0,23.0,71,0.00,,,0.00,Rainwise IP-100,2013-04-03 20:21:00,
2013-04-03 16:27:00,38.0,29.0,29.99,WNW,292,9.0,15.0,71,0.00,,,0.00,Rainwise IP-100,2013-04-03 20:27:00,
2013-04-03 16:33:00,37.0,29.0,29.99,WNW,292,7.0,25.0,72,0.00,,,0.00,Rainwise IP-100,2013-04-03 20:33:00,
2013-04-03 16:38:00,37.0,29.0,29.98,WSW,247,2.0,21.0,72,0.00,,,0.00,Rainwise IP-100,2013-04-03 20:38:00,
2013-04-03 16:43:00,38.0,29.0,30.00,WNW,292,6.0,12.0,71,0.00,,,0.00,Rainwise IP-100,2013-04-03 20:43:00,
2013-04-03 16:48:00,38.0,29.0,30.00,WNW,292,5.0,15.0,71,0.00,,,0.00,Rainwise IP-100,2013-04-03 20:48:00,
2013-04-03 16:57:00,38.0,29.0,30.01,WNW,292,6.0,22.0,71,0.00,,,0.00,Rainwise IP-100,2013-04-03 20:57:00,
2013-04-03 17:02:00,37.0,29.0,30.01,NW,315,11.0,23.0,72,0.00,,,0.00,Rainwise IP-100,2013-04-03 21:02:00,
2013-04-03 17:13:00,38.0,29.0,30.01,NW,315,6.0,13.0,71,0.00,,,0.00,Rainwise IP-100,2013-04-03 21:13:00,
2013-04-03 17:19:00,37.0,29.0,30.01,NNW,337,7.0,21.0,72,0.00,,,0.00,Rainwise IP-100,2013-04-03 21:19:00,
2013-04-03 17:24:00,37.0,29.0,30.01,WNW,292,11.0,20.0,72,0.00,,,0.00,Rainwise IP-100,2013-04-03 21:24:00,
2013-04-03 17:29:00,36.0,28.0,30.01,West,270,6.0,19.0,72,0.00,,,0.00,Rainwise IP-100,2013-04-03 21:29:00,
2013-04-03 17:34:00,36.0,28.0,30.01,NW,315,13.0,22.0,72,0.00,,,0.00,Rainwise IP-100,2013-04-03 21:34:00,
2013-04-03 17:39:00,36.0,28.0,30.01,West,270,3.0,20.0,72,0.00,,,0.00,Rainwise IP-100,2013-04-03 21:39:00,
2013-04-03 17:44:00,36.0,28.0,30.02,WNW,292,6.0,17.0,72,0.00,,,0.00,Rainwise IP-100,2013-04-03 21:44:00,
2013-04-03 17:49:00,36.0,28.0,30.02,WNW,292,8.0,14.0,72,0.00,,,0.00,Rainwise IP-100,2013-04-03 21:49:00,
2013-04-03 17:54:00,36.0,28.0,30.02,WNW,292,10.0,22.0,72,0.00,,,0.00,Rainwise IP-100,2013-04-03 21:54:00,
2013-04-03 18:01:00,35.0,26.0,30.02,NW,315,6.0,15.0,72,0.00,,,0.00,Rainwise IP-100,2013-04-03 22:01:00,
2013-04-03 18:08:00,34.0,26.0,30.03,WNW,292,15.0,21.0,72,0.00,,,0.00,Rainwise IP-100,2013-04-03 22:08:00,
2013-04-03 18:13:00,34.0,26.0,30.03,West,270,6.0,17.0,72,0.00,,,0.00,Rainwise IP-100,2013-04-03 22:13:00,
2013-04-03 18:18:00,34.0,26.0,30.04,NW,315,18.0,18.0,72,0.00,,,0.00,Rainwise IP-100,2013-04-03 22:18:00,
2013-04-03 18:23:00,34.0,26.0,30.04,WNW,292,10.0,18.0,72,0.00,,,0.00,Rainwise IP-100,2013-04-03 22:23:00,
2013-04-03 18:28:00,33.0,26.0,30.04,WNW,292,4.0,16.0,72,0.00,,,0.00,Rainwise IP-100,2013-04-03 22:28:00,
2013-04-03 18:33:00,33.0,26.0,30.04,WNW,292,7.0,21.0,72,0.00,,,0.00,Rainwise IP-100,2013-04-03 22:33:00,
2013-04-03 18:38:00,33.0,26.0,30.04,WNW,292,8.0,16.0,72,0.00,,,0.00,Rainwise IP-100,2013-04-03 22:38:00,
2013-04-03 18:43:00,33.0,26.0,30.04,West,270,9.0,16.0,72,0.00,,,0.00,Rainwise IP-100,2013-04-03 22:43:00,
2013-04-03 18:49:00,33.0,26.0,30.04,WSW,247,6.0,16.0,72,0.00,,,0.00,Rainwise IP-100,2013-04-03 22:49:00,
2013-04-03 18:54:00,33.0,26.0,30.05,WNW,292,7.0,17.0,72,0.00,,,0.00,Rainwise IP-100,2013-04-03 22:54:00,
2013-04-03 19:00:00,32.0,24.0,30.05,WNW,292,8.0,12.0,73,0.00,,,0.00,Rainwise IP-100,2013-04-03 23:00:00,
2013-04-03 19:04:00,32.0,24.0,30.06,WNW,292,7.0,16.0,73,0.00,,,0.00,Rainwise IP-100,2013-04-03 23:04:00,
2013-04-03 19:10:00,32.0,24.0,30.06,WNW,292,0.0,15.0,73,0.00,,,0.00,Rainwise IP-100,2013-04-03 23:10:00,
2013-04-03 19:15:00,32.0,24.0,30.06,NW,315,12.0,16.0,73,0.00,,,0.00,Rainwise IP-100,2013-04-03 23:15:00,
2013-04-03 19:20:00,32.0,24.0,30.06,WNW,292,5.0,19.0,73,0.00,,,0.00,Rainwise IP-100,2013-04-03 23:20:00,
2013-04-03 19:25:00,32.0,24.0,30.06,WNW,292,2.0,17.0,73,0.00,,,0.00,Rainwise IP-100,2013-04-03 23:25:00,
2013-04-03 19:30:00,32.0,24.0,30.06,NNW,337,9.0,16.0,73,0.00,,,0.00,Rainwise IP-100,2013-04-03 23:30:00,
2013-04-03 19:35:00,32.0,24.0,30.06,NNW,337,9.0,15.0,73,0.00,,,0.00,Rainwise IP-100,2013-04-03 23:35:00,
2013-04-03 19:40:00,31.0,23.0,30.07,WNW,292,7.0,10.0,73,0.00,,,0.00,Rainwise IP-100,2013-04-03 23:40:00,
2013-04-03 19:45:00,31.0,23.0,30.07,West,270,9.0,19.0,73,0.00,,,0.00,Rainwise IP-100,2013-04-03 23:45:00,
2013-04-03 19:50:00,31.0,23.0,30.08,WNW,292,2.0,15.0,73,0.00,,,0.00,Rainwise IP-100,2013-04-03 23:50:00,
2013-04-03 20:00:00,31.0,23.0,30.08,WNW,292,6.0,19.0,73,0.00,,,0.00,Rainwise IP-100,2013-04-04 00:00:00,
2013-04-03 20:06:00,31.0,23.0,30.08,NW,315,10.0,12.0,73,0.00,,,0.00,Rainwise IP-100,2013-04-04 00:06:00,
2013-04-03 20:13:00,31.0,23.0,30.08,WNW,292,3.0,11.0,73,0.00,,,0.00,Rainwise IP-100,2013-04-04 00:13:00,
2013-04-03 20:18:00,31.0,23.0,30.09,WNW,292,5.0,11.0,73,0.00,,,0.00,Rainwise IP-100,2013-04-04 00:18:00,
2013-04-03 20:23:00,31.0,23.0,30.09,WNW,292,3.0,16.0,73,0.00,,,0.00,Rainwise IP-100,2013-04-04 00:23:00,
2013-04-03 20:28:00,31.0,23.0,30.10,WNW,292,9.0,17.0,73,0.00,,,0.00,Rainwise IP-100,2013-04-04 00:28:00,
2013-04-03 20:33:00,31.0,23.0,30.10,NW,315,1.0,14.0,73,0.00,,,0.00,Rainwise IP-100,2013-04-04 00:33:00,
2013-04-03 20:38:00,30.0,23.0,30.10,WSW,247,6.0,12.0,73,0.00,,,0.00,Rainwise IP-100,2013-04-04 00:38:00,
2013-04-03 20:44:00,31.0,23.0,30.10,WNW,292,8.0,13.0,73,0.00,,,0.00,Rainwise IP-100,2013-04-04 00:44:00,
2013-04-03 20:49:00,30.0,23.0,30.11,WNW,292,5.0,14.0,73,0.00,,,0.00,Rainwise IP-100,2013-04-04 00:49:00,
2013-04-03 20:54:00,30.0,23.0,30.11,West,270,1.0,13.0,73,0.00,,,0.00,Rainwise IP-100,2013-04-04 00:54:00,
2013-04-03 20:59:00,30.0,23.0,30.11,WNW,292,6.0,10.0,73,0.00,,,0.00,Rainwise IP-100,2013-04-04 00:59:00,
2013-04-03 21:04:00,30.0,23.0,30.11,WNW,292,13.0,13.0,73,0.00,,,0.00,Rainwise IP-100,2013-04-04 01:04:00,
2013-04-03 21:09:00,30.0,23.0,30.11,WNW,292,6.0,17.0,73,0.00,,,0.00,Rainwise IP-100,2013-04-04 01:09:00,
2013-04-03 21:14:00,30.0,23.0,30.12,WNW,292,1.0,12.0,73,0.00,,,0.00,Rainwise IP-100,2013-04-04 01:14:00,
2013-04-03 21:19:00,30.0,23.0,30.12,WNW,292,6.0,16.0,73,0.00,,,0.00,Rainwise IP-100,2013-04-04 01:19:00,
2013-04-03 21:24:00,30.0,23.0,30.12,West,270,3.0,15.0,73,0.00,,,0.00,Rainwise IP-100,2013-04-04 01:24:00,
2013-04-03 21:29:00,30.0,23.0,30.12,WNW,292,7.0,12.0,73,0.00,,,0.00,Rainwise IP-100,2013-04-04 01:29:00,
2013-04-03 21:40:00,30.0,23.0,30.12,WNW,292,4.0,12.0,73,0.00,,,0.00,Rainwise IP-100,2013-04-04 01:40:00,
2013-04-03 21:51:00,30.0,23.0,30.13,WNW,292,3.0,9.0,73,0.00,,,0.00,Rainwise IP-100,2013-04-04 01:51:00,
2013-04-03 21:56:00,29.0,23.0,30.14,SSW,202,7.0,7.0,73,0.00,,,0.00,Rainwise IP-100,2013-04-04 01:56:00,
2013-04-03 22:01:00,30.0,23.0,30.14,WNW,292,2.0,13.0,73,0.00,,,0.00,Rainwise IP-100,2013-04-04 02:01:00,
2013-04-03 22:06:00,29.0,23.0,30.14,West,270,5.0,12.0,73,0.00,,,0.00,Rainwise IP-100,2013-04-04 02:06:00,
2013-04-03 22:11:00,29.0,23.0,30.14,WNW,292,5.0,12.0,73,0.00,,,0.00,Rainwise IP-100,2013-04-04 02:11:00,
2013-04-03 22:16:00,30.0,23.0,30.14,WNW,292,9.0,12.0,73,0.00,,,0.00,Rainwise IP-100,2013-04-04 02:16:00,
2013-04-03 22:21:00,30.0,23.0,30.14,WNW,292,11.0,13.0,73,0.00,,,0.00,Rainwise IP-100,2013-04-04 02:21:00,
2013-04-03 22:26:00,29.0,23.0,30.14,WNW,292,0.0,13.0,73,0.00,,,0.00,Rainwise IP-100,2013-04-04 02:26:00,
2013-04-03 22:31:00,30.0,23.0,30.13,WNW,292,0.0,13.0,73,0.00,,,0.00,Rainwise IP-100,2013-04-04 02:31:00,
2013-04-03 22:36:00,30.0,23.0,30.14,NW,315,2.0,14.0,73,0.00,,,0.00,Rainwise IP-100,2013-04-04 02:36:00,
2013-04-03 22:41:00,30.0,23.0,30.14,WNW,292,6.0,11.0,73,0.00,,,0.00,Rainwise IP-100,2013-04-04 02:41:00,
2013-04-03 22:46:00,30.0,23.0,30.14,NNW,337,4.0,13.0,73,0.00,,,0.00,Rainwise IP-100,2013-04-04 02:46:00,
2013-04-03 22:51:00,29.0,23.0,30.15,WNW,292,7.0,12.0,73,0.00,,,0.00,Rainwise IP-100,2013-04-04 02:51:00,
2013-04-03 22:56:00,29.0,23.0,30.15,NW,315,7.0,12.0,73,0.00,,,0.00,Rainwise IP-100,2013-04-04 02:56:00,
2013-04-03 23:01:00,29.0,23.0,30.15,WNW,292,2.0,10.0,73,0.00,,,0.00,Rainwise IP-100,2013-04-04 03:01:00,
2013-04-03 23:06:00,29.0,23.0,30.15,WNW,292,4.0,10.0,73,0.00,,,0.00,Rainwise IP-100,2013-04-04 03:06:00,
2013-04-03 23:11:00,29.0,23.0,30.15,West,270,1.0,11.0,73,0.00,,,0.00,Rainwise IP-100,2013-04-04 03:11:00,
2013-04-03 23:16:00,29.0,23.0,30.15,NW,315,7.0,10.0,73,0.00,,,0.00,Rainwise IP-100,2013-04-04 03:16:00,
2013-04-03 23:22:00,29.0,23.0,30.15,NW,315,3.0,7.0,73,0.00,,,0.00,Rainwise IP-100,2013-04-04 03:22:00,
2013-04-03 23:27:00,29.0,23.0,30.15,WNW,292,6.0,15.0,73,0.00,,,0.00,Rainwise IP-100,2013-04-04 03:27:00,
2013-04-03 23:32:00,29.0,23.0,30.15,NW,315,9.0,13.0,73,0.00,,,0.00,Rainwise IP-100,2013-04-04 03:32:00,
2013-04-03 23:37:00,29.0,23.0,30.15,NW,315,6.0,9.0,73,0.00,,,0.00,Rainwise IP-100,2013-04-04 03:37:00,
2013-04-03 23:42:00,29.0,23.0,30.15,NW,315,6.0,12.0,73,0.00,,,0.00,Rainwise IP-100,2013-04-04 03:42:00,
2013-04-03 23:47:00,29.0,23.0,30.16,NW,315,6.0,12.0,73,0.00,,,0.00,Rainwise IP-100,2013-04-04 03:47:00,
2013-04-03 23:52:00,29.0,23.0,30.15,NNW,337,7.0,13.0,73,0.00,,,0.00,Rainwise IP-100,2013-04-04 03:52:00,
2013-04-03 23:57:00,29.0,23.0,30.15,WNW,292,1.0,9.0,73,0.00,,,0.00,Rainwise IP-100,2013-04-04 03:57:00,